Terug naar catalogus

STARLINK-32548

ActiefCommunicatieVLEO
NORAD 62120·PAYLOAD·🇺🇸 United States

Gelanceerd Nov 27, 2024 vanaf Cape Canaveral Space Force Station

Loading…

Volgende Passages (komende 24 uur)

TLE

VersSource: CelesTrak SupGP

Epoch: Sep 15, 2026, 02:43 UTC

1 62120C 24222G   26258.11368056  .00040554  00000+0  14690-2 0  2583
2 62120  43.0004 146.7155 0001601 276.7276 148.6948 15.27553890    14

Volg STARLINK-32548 in realtime met AllMySat

Download on the App Store